Bangor, ME

11:02 PM EDT on August 21, 2017 (GMT -0400)
Bangor International

Weather History for KBGR - April, 2012

Change the Weather History Date:

Tuesday, April 3, 2012

  Actual Average Record
Temperature  
Mean Temperature 40 °F 37 °F  
Max Temperature 53 °F 47 °F 70 °F (2010)
Min Temperature 27 °F 28 °F 11 °F (1954)
Degree Days  
Heating Degree Days 25 28  
Month to date heating degree days 76 85  
Since 1 July heating degree days 5753 6808  
Cooling Degree Days 0 0  
Month to date cooling degree days 0 0  
Year to date cooling degree days 0 0  
Moisture  
Dew Point 16 °F    
Average Humidity 42    
Maximum Humidity 55    
Minimum Humidity 28    
Precipitation  
Precipitation 0.00 in 0.12 in 1.93 in (1959)
Month to date precipitation T 0.36  
Year to date precipitation 4.90 9.15  
Snow  
Snow 0.00 in 0.30 in 10.00 in (1975)
Month to date snowfall T 0.8  
Since 1 July snowfall 49.1 63.2  
Snow Depth 0.00 in    
Sea Level Pressure  
Sea Level Pressure 29.70 in    
Wind  
Wind Speed 11 mph (NW)    
Max Wind Speed 25 mph    
Max Gust Speed 37 mph    
Visibility 10 miles    
Events      
T = Trace of Precipitation, MM = Missing Value Source: NWS Daily Summary

Daily Weather History Graph

Daily Weather History Graph

Search for Another Location

Airport or City:

Trip Planner

Search our weather history database for the weather conditions in past years. The results will help you decide how hot, cold, wet, or windy it might be!

Date:

Astronomy

Apr. 03, 2012 Rise Set
Actual Time 6:11 AM EDT 7:06 PM EDT
Civil Twilight 5:41 AM EDT 7:35 PM EDT
Nautical Twilight 5:06 AM EDT 8:11 PM EDT
Astronomical Twilight 4:29 AM EDT 8:48 PM EDT
Moon 3:38 PM EDT (4/3) 4:06 AM EDT (4/3)
Length of Visible Light 13h 53m
Length of Day
12h 54m
Waxing Gibbous, 86% of the Moon is Illuminated
Apr 3
Waxing Gibbous
Apr 6
Full
Apr 13
Last Quarter
Apr 21
New
Apr 29
First Quarter

Hourly Weather History & Observations

Time (EDT) Temp. Windchill Dew Point Humidity Pressure Visibility Wind Dir Wind Speed Gust Speed Precip Events Conditions
12:53 AM 37.0 °F 29.8 °F 9.0 °F 31% 29.72 in 10.0 mi WNW 10.4 mph - N/A   Mostly Cloudy
1:53 AM 33.1 °F 26.1 °F 12.0 °F 42% 29.72 in 10.0 mi NW 8.1 mph - N/A   Mostly Cloudy
2:53 AM 34.0 °F 28.8 °F 10.0 °F 37% 29.71 in 10.0 mi WNW 5.8 mph - N/A   Scattered Clouds
3:53 AM 32.0 °F 26.4 °F 10.9 °F 42% 29.71 in 10.0 mi NW 5.8 mph - N/A   Clear
4:53 AM 27.0 °F 20.5 °F 12.9 °F 56% 29.72 in 10.0 mi NW 5.8 mph - N/A   Clear
5:53 AM 30.9 °F 23.5 °F 12.0 °F 46% 29.72 in 10.0 mi NW 8.1 mph - N/A   Partly Cloudy
6:53 AM 30.9 °F 23.5 °F 12.9 °F 47% 29.75 in 10.0 mi NW 8.1 mph - N/A   Partly Cloudy
7:53 AM 36.0 °F 27.1 °F 12.9 °F 39% 29.76 in 10.0 mi NNW 13.8 mph - N/A   Partly Cloudy
8:53 AM 37.9 °F 27.9 °F 14.0 °F 38% 29.75 in 10.0 mi North 19.6 mph 25.3 mph N/A   Partly Cloudy
9:53 AM 41.0 °F 32.5 °F 15.1 °F 35% 29.75 in 10.0 mi North 17.3 mph 24.2 mph N/A   Partly Cloudy
10:53 AM 44.1 °F 35.7 °F 16.0 °F 32% 29.71 in 10.0 mi North 20.7 mph 27.6 mph N/A   Partly Cloudy
11:53 AM 46.0 °F 39.9 °F 17.1 °F 31% 29.70 in 10.0 mi North 13.8 mph 36.8 mph N/A   Partly Cloudy
12:53 PM 48.0 °F - 18.0 °F 30% 29.69 in 10.0 mi NW 16.1 mph 25.3 mph N/A   Partly Cloudy
1:53 PM 48.9 °F - 19.0 °F 31% 29.68 in 10.0 mi NW 18.4 mph 25.3 mph N/A   Partly Cloudy
2:53 PM 52.0 °F - 19.9 °F 28% 29.65 in 10.0 mi North 15.0 mph 23.0 mph N/A   Partly Cloudy
3:53 PM 53.1 °F - 21.0 °F 29% 29.65 in 10.0 mi NNW 13.8 mph 21.9 mph N/A   Clear
4:53 PM 52.0 °F - 19.9 °F 28% 29.65 in 10.0 mi NW 16.1 mph 21.9 mph N/A   Partly Cloudy
5:53 PM 50.0 °F - 19.9 °F 31% 29.66 in 10.0 mi NW 11.5 mph 25.3 mph N/A   Partly Cloudy
6:53 PM 46.9 °F - 19.0 °F 33% 29.67 in 10.0 mi NW 10.4 mph - N/A   Partly Cloudy
7:53 PM 44.1 °F 37.7 °F 19.9 °F 38% 29.69 in 10.0 mi NW 12.7 mph 17.3 mph N/A   Partly Cloudy
8:53 PM 43.0 °F 37.2 °F 19.0 °F 38% 29.70 in 10.0 mi NW 10.4 mph - N/A   Partly Cloudy
9:53 PM 42.1 °F 37.7 °F 19.0 °F 40% 29.69 in 10.0 mi NW 6.9 mph - N/A   Partly Cloudy
10:53 PM 39.9 °F 34.5 °F 19.9 °F 45% 29.68 in 10.0 mi WNW 8.1 mph - N/A   Scattered Clouds
11:53 PM 37.9 °F 34.4 °F 19.9 °F 48% 29.66 in 10.0 mi WNW 4.6 mph - N/A   Partly Cloudy